Wind_Speed
5 6 16 23 18 2 4 9 3 8 10 14 19 24 20 15 11 17 18 18 18 11 11 23 30 37 34 35 27 29 26 26 27 26 25 24 27 25 25 23 22 22 21 20
3 18 12 5 7 7 6 5 3 7 8 4 10 17 10 10 13 15 18 17 16 14 10 16 20 24 32 30 25 28 29 27 26 25 24 16 24 21 20 19 19 19 19 21
7 7 11 6 7 7 6 11 8 5 9 17 12 18 12 12 8 12 17 10 10 9 14 15 10 18 23 24 25 25 24 24 23 21 20 21 20 21 18 20 21 21 21 25
5 7 6 3 11 7 11 4 5 8 5 10 2 17 18 21 23 20 19 18 9 11 14 10 11 9 18 24 18 17 18 21 21 25 27 30 20 17 15 21 19 20 20 24
6 1 4 10 4 6 11 10 9 11 6 4 7 5 23 8 22 17 15 17 13 18 11 13 11 12 16 16 17 17 20 22 24 27 28 28 23 16 17 15 15 16 15 18
5 5 4 6 5 5 1 4 7 7 3 6 8 9 24 9 20 19 21 11 16 10 10 10 7 6 10 16 19 23 24 25 25 23 22 21 18 16 15 14 14 14 15 15
6 13 9 5 5 4 3 4 1 1 3 10 12 9 22 6 3 5 8 9 11 11 9 7 7 7 11 19 22 25 27 26 23 21 19 19 18 17 18 18 17 15 13 12
1 2 7 3 11 6 5 8 4 6 4 7 6 13 16 12 23 21 19 13 10 10 8 9 9 8 10 15 22 22 28 27 23 22 21 18 19 19 19 18 15 11 9 7
3 3 2 3 1 7 2 4 7 3 3 2 6 10 18 20 15 14 10 9 10 9 9 9 7 7 13 16 19 27 28 27 26 24 24 22 21 20 18 14 10 8 7 7
3 2 3 4 3 6 6 4 3 1 5 5 6 8 12 6 19 20 15 9 11 10 9 9 10 11 14 20 24 27 28 30 29 27 23 19 18 16 14 12 9 8 8 9
3 1 4 3 3 3 1 3 4 3 5 4 3 6 7 12 9 5 9 11 12 10 8 11 11 12 18 21 25 27 29 31 28 24 20 18 17 14 12 9 8 10 11 11
4 2 3 9 8 7 4 4 3 6 7 11 1 8 8 3 7 7 9 10 9 0 6 10 13 12 15 19 22 23 28 29 25 21 20 17 15 15 11 9 10 11 11 8
2 0 3 7 3 3 2 4 6 1 2 11 10 9 5 8 14 12 10 9 2 4 6 10 11 12 12 17 18 23 26 27 24 20 18 16 18 15 11 11 11 12 10 10
4 4 6 5 5 4 5 9 6 3 4 12 20 18 18 23 17 15 16 5 5 6 6 8 11 11 12 17 18 21 26 26 23 20 19 20 18 14 12 10 11 12 11 10
5 5 5 8 12 15 15 14 19 15 11 5 14 17 6 15 14 16 20 7 8 10 11 10 13 12 11 14 17 19 26 27 24 21 21 20 16 13 12 10 11 12 10 8
4 4 4 12 16 17 17 21 19 18 18 13 14 22 11 18 12 14 16 13 13 15 15 13 14 13 13 15 17 19 24 28 25 22 19 18 16 14 12 11 12 12 10 9
6 2 2 5 6 10 13 16 20 15 11 9 14 9 11 6 9 11 13 13 16 18 18 17 17 15 13 19 21 20 27 27 24 22 20 19 18 16 14 13 13 13 13 14
6 4 3 5 5 6 2 10 8 18 13 14 14 12 17 8 9 9 8 7 9 15 16 15 14 13 19 21 23 27 28 27 24 23 21 19 19 17 15 14 14 15 15 15
14 6 3 3 4 9 10 5 5 5 6 2 8 13 15 13 4 7 4 5 4 12 13 14 19 21 22 24 29 28 24 26 22 23 22 22 21 18 18 15 16 14 14 12
13 13 5 2 4 4 4 10 11 11 7 9 14 13 11 6 7 8 4 4 9 11 12 13 19 21 23 23 31 26 23 23 20 25 24 22 21 19 19 17 16 14 13 12
2 3 10 9 6 5 6 14 10 4 2 14 14 14 14 4 5 5 4 3 3 7 14 19 21 21 25 29 30 21 22 21 28 27 24 22 21 18 18 16 15 15 14 13
3 3 2 3 4 4 13 12 2 5 7 10 14 14 16 12 7 5 4 4 2 4 9 20 16 17 23 29 28 20 21 30 28 27 24 21 20 18 17 17 15 16 15 14
3 2 3 2 3 7 9 10 12 9 7 9 13 18 18 13 6 6 5 5 4 12 11 19 18 15 20 27 28 22 26 29 28 27 24 22 20 18 17 18 18 18 17 16
3 1 3 3 5 12 13 8 13 13 14 15 14 19 18 9 6 10 9 6 6 8 8 17 17 13 14 23 25 30 30 30 29 27 25 24 23 19 17 18 17 15 19 17
4 5 5 5 4 14 8 13 13 14 15 17 16 18 15 8 6 10 8 5 2 7 10 16 15 15 19 25 26 27 32 30 28 27 26 26 25 22 19 18 17 16 18 22
2 3 3 6 12 7 11 13 13 10 17 16 16 17 9 4 3 1 4 4 1 4 10 12 15 15 19 24 25 28 32 31 28 22 23 26 27 23 21 20 16 13 12 13
Wind_Direction
184 172 204 201 207 288 14 251 0 265 220 212 237 258 260 252 242 253 257 258 262 256 264 273 270 274 279 276 256 232 226 228 217 204 194 199 200 204 209 212 212 208 208 212
177 225 212 163 199 241 266 275 272 295 296 252 278 276 281 262 255 249 255 261 264 272 278 274 273 273 274 268 249 239 227 220 211 204 195 195 192 193 194 195 200 200 196 206
210 253 222 203 213 218 220 241 255 253 326 300 306 285 279 263 246 260 267 253 250 237 259 270 274 255 257 248 235 219 204 202 197 185 168 154 150 145 158 170 176 186 207 201
238 249 265 261 237 239 253 199 240 237 215 261 209 286 276 276 272 261 260 260 252 243 251 254 260 267 241 238 218 209 187 180 176 179 166 159 155 153 165 174 184 197 204 210
237 29 201 233 231 201 251 253 257 230 236 262 242 308 270 217 263 253 245 256 252 251 249 254 251 242 246 208 187 180 170 164 163 172 172 168 168 155 160 167 178 193 197 204
241 262 165 195 231 208 141 205 220 227 126 250 209 192 276 241 245 249 245 230 248 251 248 250 265 206 170 172 166 165 159 158 160 167 167 175 170 164 160 168 173 169 172 184
252 247 254 202 243 277 165 80 178 168 201 230 192 188 238 254 241 231 235 240 247 250 258 223 198 178 156 158 158 160 159 155 156 158 164 167 164 164 168 174 174 169 177 198
251 257 193 181 203 186 179 163 177 185 187 226 153 225 237 230 261 265 266 273 258 261 247 230 200 172 155 151 150 152 153 151 153 152 151 154 163 160 162 163 167 183 204 217
196 250 332 102 171 148 194 164 201 12 235 233 233 274 280 274 273 283 273 275 272 257 235 209 155 151 144 146 146 149 150 152 150 147 143 141 145 151 157 162 175 187 192 188
6 337 335 343 344 232 167 191 83 279 213 232 253 256 236 224 237 265 278 295 286 260 207 162 150 142 138 142 149 153 153 150 148 143 145 146 152 150 154 164 170 175 171 167
14 139 285 23 232 194 239 194 204 190 204 231 293 257 203 216 255 261 288 294 295 273 171 151 140 133 137 142 147 149 148 148 148 148 149 152 152 156 163 173 171 163 160 158
335 160 252 237 232 261 249 210 198 213 230 238 313 259 316 234 346 326 311 316 302 113 134 145 138 135 142 143 145 150 154 151 154 153 154 156 165 169 172 170 160 163 169 174
312 307 313 328 43 75 213 246 222 206 299 239 231 242 355 342 333 326 313 325 10 115 136 141 134 141 144 147 149 154 160 157 159 158 160 166 164 170 170 162 159 167 170 166
126 228 202 190 245 307 288 298 218 210 210 247 242 275 289 295 311 327 312 272 166 144 154 159 141 146 151 153 156 159 165 166 166 166 170 172 171 172 166 163 169 172 173 176
163 249 205 249 265 269 262 263 269 257 244 212 265 269 284 283 289 302 290 256 184 168 165 186 152 153 155 154 160 165 172 176 174 171 174 176 169 167 164 163 161 171 176 185
175 257 229 272 259 259 274 264 247 246 248 252 260 273 254 264 276 304 302 287 198 183 171 174 156 157 159 162 165 169 176 181 181 179 175 168 166 164 169 163 161 167 180 191
175 200 337 259 283 319 271 237 220 229 215 218 244 246 253 258 280 298 306 304 197 180 170 172 167 163 164 168 170 172 181 181 182 180 170 171 168 165 164 163 165 165 164 158
232 167 203 274 287 253 296 9 208 219 214 221 238 259 256 249 267 268 271 304 190 177 168 171 165 161 165 165 171 179 183 181 180 174 173 176 172 169 167 166 158 157 162 159
205 201 260 261 243 282 283 39 17 344 266 17 300 275 298 234 233 265 276 13 261 186 174 171 164 161 160 165 174 176 174 178 174 172 177 181 179 173 172 174 167 164 166 166
190 203 196 243 280 290 24 3 353 322 259 7 321 316 330 321 204 237 297 7 337 155 171 168 163 160 162 169 171 166 166 168 168 178 184 186 184 180 177 177 171 170 174 172
151 194 230 248 254 251 20 315 312 212 328 314 325 320 322 248 218 295 297 313 322 206 168 157 161 168 172 169 167 161 164 171 184 183 186 186 185 184 182 178 175 170 169 170
324 304 264 278 250 269 5 325 23 276 297 330 326 325 318 310 296 304 212 209 274 237 187 164 164 172 169 168 164 162 174 184 183 183 185 181 183 182 182 180 173 171 168 165
355 314 295 238 257 245 270 287 288 330 353 339 330 322 317 304 322 14 352 10 290 220 178 171 167 156 164 168 171 169 185 183 182 185 183 179 178 180 182 177 172 170 172 168
272 188 258 284 257 255 322 300 344 353 344 334 329 320 304 297 351 27 347 15 185 163 169 159 151 154 159 170 177 184 183 184 183 183 180 178 176 176 180 183 181 166 178 169
243 326 294 266 311 330 34 335 339 335 336 331 321 314 311 300 20 22 333 317 20 145 134 152 160 167 169 174 182 187 184 183 179 184 177 179 181 180 180 187 190 191 195 196
218 262 329 309 319 315 305 310 317 334 312 310 323 310 293 338 51 345 309 287 291 102 133 142 158 161 166 175 180 186 188 187 181 167 166 174 179 183 189 189 186 196 203 209
Height
726 738 733 724 724 727 733 735 741 728 721 724 722 712 708 705 706 701 694 690 685 684 677 674 669 666 666 665 665 664 667 669 673 679 684 689 689 694 700 704 708 712 717 722
731 725 721 723 729 733 737 744 747 736 725 728 726 718 711 706 697 692 687 684 680 676 675 668 664 662 660 658 659 661 662 665 669 673 678 684 687 692 698 703 707 711 715 720
733 723 718 722 729 732 736 740 743 745 734 724 732 720 711 695 692 685 677 676 672 675 672 664 661 657 655 654 653 657 658 661 667 672 679 684 689 693 698 701 705 710 714 718
729 720 721 726 729 731 740 731 732 738 745 752 725 730 712 691 685 679 674 667 669 668 661 660 657 653 649 647 651 658 658 663 667 672 676 681 686 690 696 700 705 710 713 717
727 721 721 726 726 725 732 731 733 736 744 745 739 750 678 688 679 673 669 661 661 653 654 653 650 648 645 646 650 656 660 663 667 674 676 682 686 690 696 701 705 709 712 716
723 714 718 723 719 720 720 725 731 735 747 759 735 744 682 686 668 662 655 657 650 651 650 648 645 643 645 647 651 656 659 664 669 675 677 682 687 690 695 700 705 708 711 715
722 720 715 715 724 720 725 740 756 760 763 739 719 734 678 663 656 654 655 653 649 645 645 645 644 643 644 647 652 656 660 666 671 675 680 684 688 691 695 700 704 707 710 713
729 730 715 709 717 724 731 737 749 745 747 731 712 714 669 658 645 640 642 644 642 641 639 638 638 642 644 649 652 658 662 667 672 677 682 686 690 692 696 701 704 707 709 711
723 724 709 710 709 715 721 733 724 734 727 733 714 682 659 648 649 642 645 640 639 639 634 634 637 642 644 651 655 659 664 669 674 679 684 689 692 695 698 702 705 706 708 710
727 733 720 713 713 710 715 714 735 742 736 734 708 693 671 655 650 640 641 646 639 632 630 632 636 641 647 652 657 662 666 670 676 681 686 690 694 696 699 702 704 706 707 710
735 736 730 721 720 719 718 721 720 722 727 723 714 691 657 656 649 650 648 641 633 625 629 631 635 641 648 653 658 664 668 672 678 683 687 691 694 697 700 702 703 705 708 710
738 746 745 730 716 710 715 717 717 721 720 704 712 677 637 644 649 648 645 639 635 632 633 634 636 642 649 654 660 665 671 673 679 683 688 692 695 697 699 701 703 705 708 711
741 748 751 736 720 716 719 713 714 719 719 705 707 669 642 648 647 646 646 638 635 638 640 638 641 645 651 657 662 667 672 675 679 684 688 692 695 697 699 701 703 706 709 711
738 744 742 747 727 726 726 717 711 718 725 695 683 675 668 653 652 650 644 639 638 640 644 643 643 647 652 658 663 667 672 676 680 684 688 692 694 697 699 701 703 706 709 711
736 733 735 731 725 724 719 718 711 710 708 708 677 675 679 668 660 651 639 639 640 638 640 646 643 648 653 658 664 668 672 677 680 684 688 691 694 697 699 701 703 707 710 711
740 743 732 726 718 712 709 704 704 703 696 690 686 676 671 659 653 646 638 631 628 632 635 642 641 647 652 657 663 668 673 676 680 684 688 692 695 697 700 702 704 707 709 710
736 735 739 724 705 713 705 680 684 683 680 678 683 672 657 653 650 644 636 630 619 623 628 635 637 642 649 655 661 667 671 676 680 683 688 692 695 698 700 703 705 706 708 711
725 736 735 725 713 714 675 671 666 669 666 664 665 662 651 651 646 639 635 627 620 623 627 633 635 641 648 654 661 666 671 675 679 683 687 692 695 698 701 704 705 707 709 712
719 724 728 720 705 686 678 679 683 681 671 663 664 657 649 640 640 635 625 622 620 620 624 628 631 637 644 652 658 665 670 675 679 683 688 692 695 698 701 704 706 708 710 713
709 712 722 718 704 690 683 689 692 692 674 670 666 658 650 641 643 633 622 621 622 619 624 627 632 638 644 651 656 663 669 673 678 682 687 691 694 698 701 704 706 708 711 713
711 716 714 708 702 688 701 698 692 676 673 672 663 655 648 642 634 627 620 621 620 619 621 626 633 637 642 648 655 662 667 672 675 681 686 690 694 698 701 705 707 709 711 714
716 708 697 702 692 683 694 694 678 682 674 669 662 656 650 637 630 623 619 619 620 623 627 625 632 638 642 647 654 661 666 669 675 680 685 690 694 698 701 705 708 710 712 715
714 715 713 716 702 692 690 693 683 676 672 672 664 656 649 639 629 621 617 613 612 618 620 625 631 638 642 646 652 659 663 669 675 680 684 689 693 697 701 705 708 711 713 716
714 708 707 706 690 691 682 683 680 675 673 670 664 658 648 637 625 618 618 617 618 618 626 624 631 637 642 647 652 656 662 668 674 679 683 688 693 697 701 705 708 710 713 716
719 714 704 699 691 688 680 681 680 678 671 669 667 655 642 635 628 618 625 625 620 619 622 624 626 633 638 644 651 656 661 668 673 677 682 687 692 696 701 705 707 709 712 714
712 712 708 700 694 698 693 686 684 681 670 666 659 655 643 631 632 634 630 626 619 617 614 620 627 633 637 643 649 655 660 666 671 677 681 685 691 696 700 703 706 709 712 715